TimeCDT,TemperatureF,Dew PointF,Humidity,Sea Level PressureIn,VisibilityMPH,Wind Direction,Wind SpeedMPH,Gust SpeedMPH,PrecipitationIn,Events,Conditions,WindDirDegrees,DateUTC
12:53 AM,66.9,64.0,90,30.23,9.0,WSW,3.5,-,0.00,Rain,Light Rain,250,2013-07-15 05:53:00
1:53 AM,66.9,64.0,90,30.23,9.0,WSW,6.9,-,0.00,Rain,Light Rain,250,2013-07-15 06:53:00
2:53 AM,66.9,64.0,90,30.24,5.0,Calm,Calm,-,0.01,Rain,Light Rain,0,2013-07-15 07:53:00
3:34 AM,66.2,64.4,94,30.24,4.0,Calm,Calm,-,0.00,Rain,Light Rain,0,2013-07-15 08:34:00
3:39 AM,66.2,64.4,94,30.24,5.0,Calm,Calm,-,0.00,,Overcast,0,2013-07-15 08:39:00
3:48 AM,66.2,64.4,94,30.24,4.0,Calm,Calm,-,0.00,,Overcast,0,2013-07-15 08:48:00
3:53 AM,66.0,64.0,93,30.24,5.0,Calm,Calm,-,0.00,,Overcast,0,2013-07-15 08:53:00
4:16 AM,66.2,64.4,94,30.23,4.0,Calm,Calm,-,N/A,,Overcast,0,2013-07-15 09:16:00
4:53 AM,66.0,64.0,93,30.22,3.0,Calm,Calm,-,N/A,,Overcast,0,2013-07-15 09:53:00
5:53 AM,66.0,64.0,93,30.24,3.0,Calm,Calm,-,N/A,,Overcast,0,2013-07-15 10:53:00
6:08 AM,66.2,64.4,94,30.24,2.0,SE,4.6,-,N/A,,Overcast,140,2013-07-15 11:08:00
6:23 AM,66.2,64.4,94,30.24,4.0,SE,4.6,-,N/A,,Overcast,140,2013-07-15 11:23:00
6:53 AM,66.9,64.0,90,30.24,5.0,Calm,Calm,-,N/A,,Overcast,0,2013-07-15 11:53:00
7:53 AM,66.9,64.9,93,30.24,5.0,SE,4.6,-,N/A,,Overcast,130,2013-07-15 12:53:00
8:53 AM,68.0,64.9,90,30.26,5.0,Calm,Calm,-,N/A,,Overcast,0,2013-07-15 13:53:00
9:20 AM,68.0,64.4,88,30.26,7.0,Calm,Calm,-,N/A,,Overcast,0,2013-07-15 14:20:00
9:53 AM,68.0,64.9,90,30.26,8.0,Calm,Calm,-,N/A,,Overcast,0,2013-07-15 14:53:00
10:53 AM,69.1,66.0,90,30.26,6.0,SSE,4.6,-,0.01,Rain,Light Rain,150,2013-07-15 15:53:00
11:22 AM,69.8,66.2,88,30.26,7.0,Calm,Calm,-,0.00,,Overcast,0,2013-07-15 16:22:00
11:45 AM,69.8,66.2,88,30.26,8.0,SSE,3.5,-,0.00,,Overcast,160,2013-07-15 16:45:00
11:53 AM,71.1,66.9,87,30.26,8.0,SSE,4.6,-,0.00,,Overcast,150,2013-07-15 16:53:00
12:18 PM,71.6,66.2,83,30.26,10.0,Variable,3.5,-,N/A,,Overcast,0,2013-07-15 17:18:00
1:53 PM,72.0,68.0,87,30.25,10.0,South,4.6,-,0.00,Rain,Light Rain,170,2013-07-15 18:53:00
2:53 PM,72.0,68.0,87,30.24,8.0,SSE,4.6,-,0.01,Rain,Light Rain,160,2013-07-15 19:53:00
3:53 PM,73.0,69.1,87,30.23,9.0,Calm,Calm,-,0.00,,Mostly Cloudy,0,2013-07-15 20:53:00